COSMOS 1603 DEB, 43312

Orbit data source: Space-Track

COSMOS 1603 DEB, 43312 is space debris in LEO originally from a launch on Fri, 28 Sep 1984 UTC launched from the Tyuratam Missile And Space Complex (TTMTR). Debris objects in space refer to the collection of defunct objects orbiting the Earth. Examples of debris include non-operational satellites, rocket bodies, and fragments generated from explosions, collisions, or faulty payload assembly.

Loading next visibility...
Identifier
43312, 1984-106AE
Orbit
LEO
Country
Flag of CISCIS
Related business
Manufacturer
Unknown
Mission
Spacecraft
Bus & Motor
Unknown
Mass
Unknown
Launch date (UTC)
1984-09-28 (42 years ago)
Launch vehicle
Unknown
Launch site
Tyuratam Missile And Space Complex (TTMTR)
Object type
Payload
Rocket body
Debris
Shape & HBR
Unknown shape, 0.1 m
Radar Cross Section
Medium (>0.1 m² and <1 m²)

Expand to show TLE details & history
Last TLE update: 3 days ago

TLE from 3 days ago
0 COSMOS 1603 DEB
1 43312U 84106AE  26169.98620070  .00000833  00000-0  39848-3 0  9997
2 43312  71.0225  14.1239 0018083 221.3221 138.6538 14.21965872534949
Epoch: 2026-06-18T23:40Z
TLE epoch observation values (Epoch: 2026-06-18T23:40:07.740Z)
Latitude
-0.00005°
Longitude
111.86997°
Altitude
830.903 km
Speed
7.433 km/s
True Right ascension
00h 56m 29s
True Declination
0° 00' 00"
Sunlit
Object was in daylight at epoch
Visualization orbit readout
Latitude
Unknown
Longitude
Unknown
Altitude
Unknown
Speed
Unknown
Apparent Right ascension
Unknown
Apparent Declination
Unknown
Sunlit
N/A
Visualization observer readout
Local Sidereal Time
21:37:47
Azimuth
Unknown
Elevation
Unknown
Doppler factor
Unknown
Orbital elements
Apogee altitude
829.638 km
Perigee altitude
803.618 km
Semi-major axis
7,194.765 km
Eccentricity
0.00181
Inclination
71.0225°
RAAN
14.1239°
Arg. of periapsis
221.3221°
True anomaly
138.79046°
Mean anomaly
138.6538°
Eccentric anomaly
138.72215°
Mean motion
3.55646 °/min
Orbital period
101.22 mins
BSTAR
0.00039848
Loading maneuver chart data...
Computing Atmospheric mass density...

Documentation

Showing up to 5 results
|